Torna al catalogo

FENGYUN 1C DEB

AttivoPO
NORAD 36996·DEBRIS·🇨🇳 China

Lanciato May 10, 1999 da Taiyuan Satellite Launch Center

Loading…

Prossimi Passaggi (prossime 24 ore)

TLE

In scadenzaSource: Space-Track

Epoca: Sep 6, 2026, 16:12 UTC

1 36996U 99025ECC 26249.67567427  .00000879  00000-0  36943-3 0  9997
2 36996  98.2544  25.7562 0249464 295.7149  73.3467 14.12882639634748

Traccia FENGYUN 1C DEB in tempo reale con AllMySat

Download on the App Store